Wind_Speed
18 18 17 17 16 15 16 16 17 18 18 18 17 19 20 20 21 20 20 20 20 20 20 19 19 19 20 20 20 21 21 21 22 21 21 22 22 21 22 22 22 23 23 23
19 17 18 18 17 17 17 16 17 18 21 21 21 22 23 23 22 22 21 21 21 20 20 21 21 21 21 22 22 22 22 23 23 22 22 22 23 23 23 24 23 24 24 24
19 17 18 18 17 19 18 18 18 19 21 23 23 23 22 23 23 23 23 23 23 22 22 22 22 22 22 23 23 24 24 25 25 25 25 25 25 25 26 26 25 25 25 25
19 19 19 19 19 19 19 19 20 21 23 25 26 25 24 24 24 24 24 24 24 23 23 23 24 24 24 25 25 25 25 26 26 26 26 26 26 26 26 26 27 27 27 27
20 19 19 19 18 18 21 21 21 21 23 27 27 26 24 25 24 24 25 25 25 25 25 25 25 26 26 26 25 25 25 26 26 26 26 27 27 27 27 27 28 28 28 27
21 19 20 21 20 20 21 22 22 22 24 26 27 27 25 25 25 25 26 26 26 26 26 27 26 26 27 26 26 26 26 26 26 26 26 26 27 27 28 28 28 28 28 28
21 20 21 22 22 22 21 23 23 23 25 25 25 27 26 26 26 26 26 26 27 27 27 27 27 27 27 26 26 26 26 26 26 26 26 26 26 26 27 28 28 29 29 28
23 23 23 22 23 22 23 24 24 24 25 25 26 26 26 27 27 27 27 27 28 28 28 28 28 27 28 27 27 27 27 27 26 26 26 25 26 27 28 28 29 29 28 28
25 26 26 24 24 26 25 25 25 25 26 26 26 26 26 26 26 26 27 27 28 28 28 28 28 28 28 27 27 27 28 27 26 26 26 26 27 28 28 28 28 28 28 28
26 29 28 28 28 27 26 25 25 26 27 26 26 26 26 27 27 27 27 27 27 28 28 27 28 28 28 28 27 27 27 26 26 27 27 27 28 29 29 29 29 28 28 28
27 27 28 28 28 27 26 25 25 26 27 26 26 26 26 26 26 27 27 27 28 28 27 28 28 28 28 29 28 27 27 27 28 28 29 29 29 30 30 28 28 28 28 28
27 27 27 26 26 26 26 26 26 26 26 26 27 26 25 26 27 27 28 28 28 28 28 28 28 28 29 29 29 29 29 29 29 30 30 30 30 30 30 29 28 28 28 28
27 26 26 26 25 26 26 26 26 26 26 26 26 26 27 28 28 29 29 29 29 29 29 29 29 28 29 29 29 30 30 30 30 30 31 30 30 30 30 29 28 28 29 29
27 26 25 25 25 25 25 25 25 25 26 26 27 27 28 29 29 29 29 30 30 30 30 30 30 29 29 29 30 30 31 31 31 31 31 31 31 31 31 30 30 29 29 29
27 26 25 25 25 25 25 25 25 25 26 26 27 27 28 28 28 28 29 30 30 30 30 30 30 30 30 30 31 32 32 32 32 32 32 31 31 31 31 31 31 31 30 30
26 25 25 25 25 25 24 24 25 25 25 25 25 26 26 26 27 28 29 30 30 30 30 30 30 30 30 31 32 32 32 32 32 32 32 32 32 32 31 31 32 31 31 30
26 26 26 26 25 25 25 24 25 25 25 25 25 25 26 26 27 28 28 29 29 29 30 30 31 31 31 32 32 32 32 32 32 33 32 32 33 32 32 32 31 31 31 30
26 26 26 25 25 25 25 25 25 25 25 25 26 26 27 28 28 28 28 28 28 29 29 30 31 31 31 31 32 32 32 32 32 32 32 32 32 32 32 31 31 31 30 29
26 26 25 25 24 24 24 25 25 26 25 26 26 27 27 28 29 29 28 28 29 29 30 30 31 30 30 30 30 31 31 31 32 32 32 31 30 30 30 30 30 30 30 29
25 25 24 25 24 24 25 25 26 26 26 27 27 27 28 28 29 29 29 29 30 30 30 30 30 30 30 30 30 30 30 31 31 31 31 30 29 30 30 30 30 30 29 29
25 25 25 25 25 25 25 25 26 26 26 26 27 27 28 28 29 29 30 30 30 30 29 29 29 29 30 29 29 29 29 30 30 29 29 29 30 30 30 29 29 29 29 29
24 24 24 24 24 24 25 25 25 26 26 26 27 27 27 28 28 28 28 28 29 29 28 28 28 28 28 28 28 28 29 29 29 29 29 29 29 29 29 29 28 28 28 28
24 23 24 24 24 24 25 25 26 26 26 26 27 27 28 28 28 28 28 28 28 28 28 28 28 28 27 27 28 28 28 28 28 28 28 29 29 28 28 28 27 27 27 27
24 24 24 24 24 24 25 25 26 26 26 26 27 27 27 27 28 28 28 28 27 27 27 27 27 27 27 27 28 28 28 28 28 28 28 28 27 27 26 27 26 26 26 27
24 24 24 25 25 24 25 25 25 25 26 26 27 27 27 26 27 27 27 27 27 27 27 27 27 27 27 27 28 28 28 28 28 28 27 26 25 24 24 25 25 25 25 25
25 25 24 25 25 24 24 24 25 25 26 26 26 26 26 26 26 26 26 26 26 26 26 26 27 27 27 27 27 27 27 27 26 26 25 24 24 24 23 24 24 24 24 24
25 25 24 25 25 24 24 24 24 24 24 25 25 24 25 25 25 25 25 25 25 26 26 27 27 27 27 27 26 26 25 24 24 24 24 24 23 23 22 23 23 23 23 23
Wind_Direction
241 248 254 259 258 259 256 253 258 270 274 269 276 285 291 296 300 302 303 303 304 304 305 303 302 302 302 301 302 301 300 301 303 302 301 300 300 300 300 301 302 302 300 296
242 245 252 252 254 254 258 259 261 266 272 270 272 280 289 292 294 297 299 300 301 301 301 301 300 300 301 300 300 300 300 301 301 301 301 301 300 300 300 300 300 300 299 297
243 245 250 251 250 250 255 258 261 263 267 273 274 278 286 289 291 293 295 297 299 300 299 298 299 300 300 300 300 301 301 300 300 299 299 299 299 299 299 300 300 298 298 297
244 245 249 252 254 256 256 259 258 260 266 271 275 281 284 286 289 292 294 296 297 296 296 296 297 297 298 298 299 300 302 301 298 297 296 297 298 298 298 298 299 299 298 297
242 246 251 255 257 260 264 262 261 263 265 273 278 280 282 285 288 289 292 294 294 294 294 295 295 295 296 296 296 297 298 299 298 298 297 296 296 297 297 297 299 298 298 298
242 243 250 252 253 255 260 263 262 264 268 273 277 281 282 284 286 288 290 292 294 295 295 295 294 293 294 295 295 296 296 297 297 297 297 297 296 296 296 296 298 298 297 297
242 243 250 254 254 252 255 261 265 267 270 274 277 281 284 285 285 288 290 291 292 295 296 295 294 294 294 294 294 295 296 297 297 296 295 295 296 297 298 299 299 299 298 297
243 242 245 252 256 255 259 263 266 268 272 274 277 281 284 285 287 288 289 289 291 292 294 295 294 292 293 294 294 295 295 295 296 296 295 295 295 296 297 298 297 298 298 297
241 245 248 254 259 261 264 265 267 269 271 274 275 278 280 284 286 287 288 288 290 292 292 293 293 292 292 294 295 295 294 293 294 294 294 295 296 296 297 297 297 296 296 296
244 246 251 255 260 264 266 267 268 269 272 274 276 277 280 284 286 287 288 289 290 293 293 293 292 291 292 293 294 295 295 296 296 296 295 295 295 296 296 297 297 296 295 296
247 250 254 256 260 265 268 269 270 271 272 274 277 280 283 286 288 288 287 289 291 293 293 293 292 292 292 293 294 295 297 297 297 297 297 296 296 296 297 299 299 297 295 296
248 251 255 259 263 266 268 270 272 272 272 274 278 281 283 285 287 287 288 289 291 292 293 294 294 294 293 292 293 294 295 296 297 296 296 296 297 298 297 296 296 296 296 296
250 253 257 261 263 266 268 269 271 272 274 275 277 280 283 286 288 288 289 292 293 294 295 294 295 295 295 293 292 293 295 296 298 297 296 297 297 297 296 297 297 296 296 295
250 253 257 261 264 266 269 271 272 273 275 277 278 282 285 287 288 289 290 292 294 294 295 295 294 294 294 294 294 294 295 297 298 298 297 298 298 296 295 296 297 296 296 295
252 255 257 261 264 267 268 271 274 276 277 279 280 283 286 288 289 291 292 293 294 293 293 294 293 293 294 294 295 295 296 297 298 298 298 298 298 297 296 296 296 296 296 296
252 256 259 261 263 266 270 271 274 277 279 281 284 286 288 289 291 293 294 294 294 294 293 293 292 293 294 295 296 296 296 296 296 297 297 296 296 296 295 295 295 296 296 296
251 255 258 262 265 268 270 273 276 278 281 284 286 288 290 291 292 293 294 294 295 295 294 293 293 294 295 296 297 296 296 296 296 296 296 295 295 295 295 295 294 294 294 294
252 256 260 263 265 266 269 271 274 277 280 283 286 289 291 293 296 296 297 297 296 295 295 294 295 295 296 297 296 296 297 298 298 297 296 296 296 295 295 294 293 293 292 292
251 254 257 261 264 267 270 273 275 278 281 284 286 289 291 294 296 298 297 298 297 297 296 296 296 297 297 298 298 299 299 298 298 298 298 297 295 294 294 294 294 293 292 292
249 253 256 260 264 268 271 273 276 279 281 284 286 288 290 292 295 297 297 297 297 298 298 298 298 297 298 299 298 299 299 298 297 296 297 296 295 294 294 294 294 294 295 294
251 253 255 259 263 267 270 273 277 280 282 284 286 288 290 292 294 296 298 297 298 299 299 300 299 299 300 300 299 299 299 298 298 298 297 296 296 297 297 296 296 296 296 295
253 256 258 261 264 267 270 274 277 280 282 283 285 287 290 293 296 297 298 299 299 300 300 300 300 301 301 300 300 300 299 297 297 297 297 296 297 297 297 297 296 297 298 298
254 256 258 261 264 267 271 274 277 279 281 283 285 288 291 293 296 298 299 300 301 302 301 301 302 303 302 302 302 301 301 300 299 298 299 298 298 298 298 298 298 298 299 298
253 256 258 261 265 268 271 275 278 280 282 284 287 289 291 293 295 298 300 302 303 303 304 305 304 302 303 303 303 302 302 302 301 300 300 300 298 299 300 299 299 299 299 299
254 256 259 264 266 269 272 274 278 281 284 286 287 288 290 293 296 299 301 302 302 303 304 305 305 304 304 305 304 303 303 303 304 304 305 304 301 300 301 301 301 301 301 301
254 255 258 261 265 268 271 274 277 280 283 285 287 289 291 294 296 299 301 302 303 303 306 307 307 305 305 307 308 308 307 305 304 305 307 307 306 303 302 302 303 304 304 304
252 254 258 259 263 268 272 276 279 281 283 286 288 289 291 295 297 298 300 301 301 302 305 308 308 306 306 308 310 310 309 308 307 307 308 308 308 306 304 303 304 305 305 305
Height
5890 5891 5892 5893 5894 5895 5896 5896 5896 5894 5893 5891 5888 5888 5887 5886 5884 5883 5882 5880 5878 5877 5875 5874 5872 5871 5869 5867 5866 5864 5862 5861 5859 5857 5855 5853 5851 5849 5848 5846 5844 5842 5840 5839
5884 5886 5888 5889 5890 5891 5892 5892 5892 5891 5888 5885 5884 5885 5884 5883 5881 5879 5877 5876 5874 5873 5871 5870 5868 5866 5865 5863 5862 5860 5858 5856 5854 5852 5850 5848 5846 5844 5842 5840 5838 5837 5835 5833
5880 5882 5882 5884 5886 5886 5887 5887 5887 5886 5885 5881 5880 5881 5880 5878 5877 5875 5873 5872 5870 5869 5867 5865 5863 5862 5860 5858 5857 5855 5853 5851 5849 5847 5845 5843 5841 5839 5836 5834 5832 5831 5828 5826
5874 5877 5878 5881 5880 5880 5881 5881 5881 5880 5878 5876 5875 5875 5874 5873 5871 5870 5868 5867 5865 5864 5862 5860 5858 5856 5855 5853 5851 5849 5847 5845 5843 5841 5839 5837 5835 5832 5830 5828 5826 5824 5822 5819
5869 5871 5872 5875 5874 5874 5874 5874 5874 5874 5873 5870 5869 5869 5868 5867 5866 5864 5863 5861 5860 5858 5856 5855 5853 5851 5849 5847 5845 5843 5841 5839 5837 5835 5833 5830 5828 5826 5824 5821 5819 5817 5815 5813
5863 5865 5866 5868 5867 5867 5868 5868 5867 5867 5866 5865 5863 5863 5862 5861 5860 5859 5857 5856 5854 5852 5850 5848 5846 5845 5843 5841 5839 5837 5835 5833 5830 5828 5826 5824 5822 5819 5817 5815 5812 5810 5808 5806
5857 5859 5859 5859 5860 5861 5863 5862 5861 5860 5860 5859 5857 5857 5856 5854 5853 5852 5851 5849 5847 5846 5844 5842 5840 5838 5836 5834 5833 5831 5828 5826 5824 5821 5819 5817 5814 5812 5810 5808 5805 5803 5801 5799
5851 5852 5854 5852 5853 5854 5854 5855 5855 5854 5853 5853 5852 5851 5850 5848 5847 5846 5845 5843 5841 5839 5837 5835 5833 5831 5829 5827 5826 5823 5821 5819 5817 5814 5812 5809 5807 5805 5803 5800 5798 5795 5793 5791
5844 5846 5846 5846 5846 5846 5847 5848 5848 5848 5847 5847 5846 5845 5844 5842 5841 5839 5838 5836 5834 5832 5830 5828 5826 5824 5822 5820 5818 5816 5814 5812 5809 5807 5805 5803 5801 5798 5796 5793 5790 5788 5785 5783
5838 5838 5840 5840 5840 5841 5841 5842 5842 5841 5840 5840 5839 5838 5837 5836 5834 5833 5831 5829 5827 5825 5823 5821 5819 5817 5815 5813 5811 5809 5807 5804 5802 5800 5798 5796 5793 5791 5788 5786 5783 5780 5778 5776
5831 5833 5833 5834 5834 5835 5835 5835 5834 5834 5833 5833 5833 5832 5830 5829 5827 5826 5824 5822 5820 5818 5816 5814 5812 5810 5808 5806 5804 5802 5800 5797 5795 5793 5790 5788 5786 5783 5780 5777 5775 5773 5770 5768
5824 5826 5826 5827 5828 5828 5828 5828 5827 5827 5827 5826 5825 5825 5823 5822 5820 5819 5817 5815 5813 5811 5809 5807 5805 5803 5801 5799 5797 5794 5792 5790 5788 5785 5783 5781 5778 5775 5772 5770 5767 5765 5763 5760
5817 5818 5819 5821 5821 5821 5821 5821 5821 5821 5820 5820 5818 5817 5816 5815 5814 5812 5810 5808 5806 5804 5802 5800 5798 5796 5793 5791 5789 5787 5785 5782 5780 5777 5775 5773 5770 5768 5765 5762 5760 5757 5755 5753
5810 5812 5813 5814 5815 5815 5815 5815 5815 5814 5814 5813 5812 5811 5809 5808 5807 5805 5803 5801 5799 5797 5794 5792 5790 5788 5786 5783 5781 5779 5777 5774 5772 5769 5766 5764 5762 5759 5757 5754 5752 5749 5747 5744
5804 5805 5807 5808 5808 5808 5808 5808 5808 5808 5807 5806 5805 5804 5803 5801 5799 5798 5796 5793 5791 5789 5787 5785 5782 5780 5778 5776 5773 5771 5768 5766 5763 5761 5758 5756 5753 5751 5748 5746 5743 5741 5738 5736
5797 5799 5800 5801 5802 5802 5802 5802 5802 5801 5800 5799 5798 5797 5796 5794 5792 5790 5788 5786 5783 5781 5779 5777 5775 5772 5770 5767 5765 5762 5759 5757 5754 5752 5749 5747 5744 5742 5739 5737 5734 5732 5730 5727
5791 5792 5794 5794 5795 5795 5795 5795 5795 5794 5793 5792 5792 5790 5789 5787 5785 5783 5780 5778 5776 5773 5771 5769 5767 5764 5761 5759 5756 5753 5750 5748 5745 5743 5740 5737 5735 5733 5730 5728 5725 5723 5721 5718
5784 5786 5787 5788 5788 5789 5789 5788 5788 5788 5787 5786 5785 5784 5782 5780 5778 5775 5773 5771 5768 5766 5764 5761 5758 5756 5753 5751 5748 5744 5741 5739 5736 5733 5731 5728 5726 5723 5721 5719 5716 5714 5712 5709
5778 5779 5780 5781 5781 5782 5782 5782 5781 5781 5780 5779 5778 5776 5775 5773 5771 5768 5765 5763 5761 5759 5756 5753 5750 5748 5745 5742 5739 5736 5733 5730 5727 5724 5722 5719 5717 5715 5712 5710 5707 5705 5703 5701
5771 5773 5774 5774 5774 5775 5775 5775 5774 5774 5773 5772 5771 5769 5767 5765 5763 5761 5758 5755 5753 5750 5748 5745 5742 5740 5737 5734 5731 5727 5724 5721 5719 5716 5713 5711 5708 5706 5704 5701 5698 5696 5694 5692
5765 5766 5767 5767 5768 5768 5768 5768 5767 5767 5766 5765 5763 5762 5760 5758 5756 5753 5751 5748 5746 5743 5740 5737 5734 5731 5729 5725 5722 5719 5716 5713 5710 5708 5705 5702 5700 5697 5695 5692 5690 5687 5685 5683
5758 5759 5760 5761 5761 5761 5760 5760 5760 5760 5759 5757 5756 5754 5752 5750 5748 5746 5743 5741 5738 5735 5732 5729 5726 5724 5721 5717 5714 5711 5708 5705 5702 5699 5697 5694 5691 5688 5686 5684 5681 5679 5676 5674
5752 5753 5753 5753 5754 5754 5754 5754 5753 5752 5751 5750 5749 5747 5745 5743 5741 5739 5736 5734 5731 5728 5725 5722 5719 5716 5713 5710 5707 5703 5700 5697 5694 5691 5688 5685 5682 5680 5677 5675 5672 5670 5668 5665
5745 5746 5746 5746 5747 5747 5747 5747 5746 5745 5744 5743 5742 5740 5738 5736 5734 5731 5729 5726 5724 5721 5718 5715 5712 5709 5706 5703 5699 5696 5693 5689 5686 5683 5679 5676 5674 5671 5669 5666 5664 5662 5659 5657
5737 5739 5739 5739 5740 5740 5740 5740 5739 5738 5737 5736 5734 5733 5731 5729 5727 5724 5722 5719 5717 5714 5711 5708 5705 5702 5699 5696 5692 5689 5685 5682 5678 5675 5671 5668 5665 5663 5661 5659 5656 5654 5651 5649
5731 5732 5732 5733 5733 5733 5733 5733 5732 5731 5730 5729 5727 5725 5724 5722 5720 5718 5715 5712 5710 5707 5704 5701 5698 5695 5692 5688 5685 5682 5678 5675 5672 5668 5665 5662 5659 5656 5654 5652 5649 5647 5644 5641
5723 5725 5726 5726 5727 5726 5726 5726 5725 5724 5723 5721 5720 5718 5717 5715 5713 5711 5708 5706 5703 5700 5697 5695 5691 5688 5685 5682 5678 5675 5671 5668 5665 5662 5659 5656 5653 5650 5647 5645 5642 5640 5637 5634